Weather History for Selinsgrove, PA

Change the Weather History Date:

Friday, April 25, 2014

  Actual Average (KIPT) Record (KIPT)
Temperature  
Mean Temperature 49 °F 53 °F  
Max Temperature 66 °F 65 °F 93 °F (1925)
Min Temperature 34 °F 42 °F 26 °F (1956)
Degree Days  
Heating Degree Days 16 12  
Month to date heating degree days 403  
Since 1 July heating degree days 5699  
Cooling Degree Days 0 0  
Month to date cooling degree days 0  
Year to date cooling degree days 0  
Moisture  
Dew Point 33 °F    
Average Humidity 59    
Maximum Humidity 90    
Minimum Humidity 20    
Precipitation  
Precipitation 0.11 in 0.10 in 2.00 in (1910)
Month to date precipitation 2.70  
Year to date precipitation 10.71  
Snow  
Snow 0.00 in - - ()
Month to date snowfall  
Since 1 July snowfall  
Snow Depth -    
Sea Level Pressure  
Sea Level Pressure 29.88 in    
Wind  
Wind Speed 4 mph (SSE)    
Max Wind Speed 18 mph    
Max Gust Speed 30 mph    
Visibility 10 miles    
Events Rain    
T = Trace of Precipitation, MM = Missing Value Source: NWS Daily Summary

Daily Weather History Graph

Daily Weather History Graph

Search for Another Location

Airport:

Trip Planner

Search our weather history database for the weather conditions in past years. The results will help you decide how hot, cold, wet, or windy it might be!

Date:

Astronomy

Apr. 25, 2014 Rise Set
Actual Time 6:13 AM EDT 7:57 PM EDT
Civil Twilight 5:44 AM EDT 8:26 PM EDT
Nautical Twilight 5:09 AM EDT 9:02 PM EDT
Astronomical Twilight 4:31 AM EDT 9:40 PM EDT
Moon 4:02 AM EDT (4/25) 4:16 PM EDT (4/25)
Length of Visible Light 14h 42m
Length of Day
13h 43m
Waning Crescent, 15% of the Moon is Illuminated
Apr 25
Waning Crescent
Apr 29
New
May 6
First Quarter
May 14
Full
May 21
Last Quarter

Hourly Weather History & Observations

Time (EDT) Temp. Windchill Dew Point Humidity Pressure Visibility Wind Dir Wind Speed Gust Speed Precip Events Conditions
12:53 AM 37.0 °F - 28.0 °F 70% 30.05 in 10.0 mi Calm Calm - N/A   Clear
1:53 AM 34.0 °F - 28.0 °F 79% 30.04 in 10.0 mi Calm Calm - N/A   Clear
2:53 AM 34.0 °F - 27.0 °F 75% 30.04 in 10.0 mi Calm Calm - N/A   Clear
3:53 AM 36.0 °F - 28.0 °F 73% 30.03 in 10.0 mi Calm Calm - N/A   Clear
4:53 AM 37.0 °F - 30.0 °F 76% 30.02 in 10.0 mi Calm Calm - N/A   Clear
5:53 AM 39.9 °F - 32.0 °F 73% 30.02 in 10.0 mi Calm Calm - N/A   Partly Cloudy
6:53 AM 41.0 °F - 30.9 °F 67% 30.01 in 10.0 mi Calm Calm - N/A   Partly Cloudy
7:53 AM 45.0 °F 43.5 °F 28.9 °F 53% 30.01 in 10.0 mi ENE 3.5 mph - N/A   Clear
8:53 AM 50.0 °F - 21.9 °F 33% 29.99 in 10.0 mi Calm Calm - N/A   Clear
9:53 AM 55.0 °F - 17.1 °F 23% 29.97 in 10.0 mi South 8.1 mph - N/A   Clear
10:53 AM 60.1 °F - 18.0 °F 20% 29.94 in 10.0 mi South 15.0 mph 19.6 mph N/A   Clear
11:53 AM 62.1 °F - 19.9 °F 20% 29.91 in 10.0 mi South 15.0 mph 26.5 mph N/A   Clear
12:53 PM 64.9 °F - 23.0 °F 20% 29.87 in 10.0 mi South 12.7 mph 20.7 mph N/A   Clear
1:53 PM 64.0 °F - 27.0 °F 25% 29.83 in 10.0 mi SSE 12.7 mph 24.2 mph N/A   Clear
2:53 PM 63.0 °F - 28.0 °F 27% 29.80 in 10.0 mi South 13.8 mph - N/A   Clear
3:53 PM 64.0 °F - 30.0 °F 28% 29.77 in 10.0 mi SE 9.2 mph - N/A   Mostly Cloudy
4:53 PM 57.9 °F - 39.0 °F 49% 29.79 in 10.0 mi South 18.4 mph 29.9 mph 0.01 in Rain Light Rain
5:53 PM 53.1 °F - 45.0 °F 74% 29.78 in 6.0 mi SSE 11.5 mph - 0.06 in Rain Light Rain
6:53 PM 52.0 °F - 43.0 °F 71% 29.78 in 10.0 mi South 11.5 mph - 0.01 in Rain Light Rain
7:42 PM 51.1 °F - 43.0 °F 74% 29.76 in 10.0 mi SSE 5.8 mph - 0.00 in   Overcast
7:53 PM 51.1 °F - 43.0 °F 74% 29.77 in 10.0 mi SSE 5.8 mph - 0.00 in   Overcast
8:25 PM 50.0 °F - 44.1 °F 80% 29.76 in 10.0 mi SSE 6.9 mph - N/A   Overcast
8:39 PM 51.1 °F - 43.0 °F 74% 29.77 in 10.0 mi South 6.9 mph - 0.00 in Rain Light Rain
8:53 PM 50.0 °F - 43.0 °F 77% 29.77 in 10.0 mi SSE 8.1 mph - 0.00 in Rain Light Rain
9:53 PM 48.0 °F - 43.0 °F 83% 29.77 in 6.0 mi South 3.5 mph - 0.01 in Rain Light Rain
10:53 PM 46.9 °F - 44.1 °F 90% 29.76 in 7.0 mi SE 3.5 mph - 0.02 in Rain Light Rain
11:32 PM 46.9 °F - 44.1 °F 90% 29.75 in 10.0 mi SW 3.5 mph - 0.01 in Rain Light Rain